EW5380 Weather Reports


Display with metric or nautical units.
time (UTC)temp
F
wind
direction
speed
MPH
gust
MPH
rain 1hr
in
rain 24hr
in
rain mn
in
humidity
%
barometer
mb
20180919051922 62 254 0.0 0.0 0.00 0.00 0.00 91 1017.4
20180919050419 62 254 0.0 0.0 0.00 0.00 0.00 90 1017.4
20180919044910 62 254 0.0 0.0 0.00 0.00 0.00 90 1017.4
20180919043411 63 254 0.0 0.0 0.00 0.00 0.00 90 1017.2
20180919043407 63 254 0.0 0.0 0.00 0.00 0.00 90 1017.3
20180919040400 64 254 0.0 0.0 0.00 0.00 0.00 90 1017.3
20180919034838 64 254 0.0 0.0 0.00 0.00 0.00 90 1017.2
20180919033335 64 254 0.0 0.0 0.00 0.00 0.00 90 1017.2
20180919031826 64 254 0.0 0.0 0.00 0.00 0.00 89 1017.2
20180919030327 65 254 0.0 0.0 0.00 0.00 0.00 89 1017.3
20180919024824 65 254 0.0 0.0 0.00 0.00 0.00 89 1017.2
20180919023325 65 254 0.0 0.0 0.00 0.00 0.00 89 1017.0
20180919021823 66 254 0.0 0.0 0.00 0.00 0.00 88 1016.9
20180919020320 66 254 0.0 0.0 0.00 0.00 0.00 88 1016.9
20180919014819 67 254 0.0 0.0 0.00 0.00 0.00 87 1016.9
20180919013318 67 254 0.0 0.0 0.00 0.00 0.00 86 1016.8
20180919011817 68 254 0.0 0.0 0.00 0.00 0.00 85 1016.6
20180919010300 68 254 0.0 0.0 0.00 0.00 0.00 84 1016.4
20180919004757 69 254 0.0 0.0 0.00 0.00 0.00 84 1016.4
20180919003257 70 254 0.0 0.0 0.00 0.00 0.00 81 1016.3
20180919001747 72 254 0.0 0.0 0.00 0.00 0.00 75 1016.1
20180919000244 74 254 0.0 0.0 0.00 0.00 0.00 73 1016.0
20180918234745 74 254 0.0 3.0 0.00 0.00 0.00 69 1015.9
20180918233244 74 254 0.0 1.0 0.00 0.00 0.00 69 1015.8
20180918231742 75 244 0.0 2.0 0.00 0.00 0.00 67 1015.6
20180918230243 75 255 0.0 4.0 0.00 0.00 0.00 66 1015.5
20180918224729 76 269 0.0 4.0 0.00 0.00 0.00 65 1015.5
20180918223206 76 255 1.0 6.0 0.00 0.00 0.00 63 1015.4
20180918221654 76 278 1.0 9.0 0.00 0.00 0.00 63 1015.2
20180918220140 77 273 1.0 8.0 0.00 0.00 0.00 63 1015.3
20180918214641 77 250 0.0 5.0 0.00 0.00 0.00 63 1015.2
20180918213139 77 251 1.0 13.0 0.00 0.00 0.00 61 1015.3
20180918211805 77 348 1.0 8.0 0.00 0.00 0.00 62 1015.2
20180918203057 78 286 1.0 7.0 0.00 0.00 0.00 62 1015.3
20180918201541 78 285 2.0 10.0 0.00 0.00 0.00 62 1015.2
20180918200043 77 254 2.0 10.0 0.00 0.00 0.00 64 1015.4
20180918194544 76 247 2.0 11.0 0.00 0.00 0.00 64 1015.5
20180918193019 76 281 3.0 14.0 0.00 0.00 0.00 64 1015.6
20180918191529 77 259 1.0 11.0 0.00 0.00 0.00 64 1015.8
20180918190023 77 252 1.0 6.0 0.00 0.00 0.00 63 1015.8
20180918184507 77 257 2.0 9.0 0.00 0.00 0.00 64 1016.0
20180918183006 76 254 2.0 10.0 0.00 0.00 0.00 63 1016.2
20180918181507 76 281 2.0 10.0 0.00 0.00 0.00 66 1016.3
20180918180005 76 347 1.0 9.0 0.00 0.00 0.00 68 1016.6
20180918174505 76 274 0.0 6.0 0.00 0.00 0.00 68 1016.7
20180918173002 76 255 0.0 8.0 0.00 0.00 0.00 69 1016.8
20180918171503 75 287 0.0 2.0 0.00 0.00 0.00 71 1016.9
20180918165941 74 258 0.0 7.0 0.00 0.00 0.00 73 1017.0
20180918164418 74 276 1.0 6.0 0.00 0.00 0.00 74 1017.2
20180918162903 74 250 0.0 2.0 0.00 0.00 0.00 75 1017.2
20180918161347 74 255 0.0 4.0 0.00 0.00 0.00 75 1017.4
20180918155847 74 277 0.0 4.0 0.00 0.00 0.00 74 1017.4
20180918154348 73 265 1.0 6.0 0.00 0.00 0.00 75 1017.4
20180918152837 73 268 1.0 8.0 0.00 0.00 0.00 75 1017.5
20180918151319 72 279 1.0 7.0 0.00 0.00 0.00 76 1017.6
20180918145759 71 119 0.0 4.0 0.00 0.00 0.00 80 1017.6
20180918144240 71 268 0.0 4.0 0.00 0.00 0.00 81 1017.6
20180918142721 71 269 0.0 3.0 0.00 0.00 0.00 81 1017.7
20180918141203 70 267 0.0 4.0 0.00 0.00 0.00 83 1017.6
20180918135701 69 268 0.0 1.0 0.00 0.00 0.00 84 1017.5
20180918134201 69 263 0.0 1.0 0.00 0.00 0.00 85 1017.5
20180918093814 68 254 0.0 6.0 0.00 0.00 0.00 84 1016.7
20180918092313 68 275 0.0 4.0 0.00 0.00 0.00 84 1016.6
20180918090813 68 92 0.0 4.0 0.00 0.00 0.00 84 1016.4
20180918085313 68 221 0.0 4.0 0.00 0.00 0.00 84 1016.3
20180918083810 68 250 0.0 7.0 0.00 0.00 0.00 84 1016.2
20180918082255 68 293 0.0 5.0 0.00 0.00 0.00 84 1016.1
20180918080740 68 272 0.0 3.0 0.00 0.00 0.00 84 1016.1
20180918075220 69 294 0.0 2.0 0.00 0.00 0.00 83 1016.1
20180918073715 69 309 0.0 3.0 0.00 0.00 0.00 82 1015.9
20180918072212 69 75 0.0 3.0 0.00 0.00 0.00 81 1016.1
20180918070710 69 254 0.0 6.0 0.00 0.00 0.00 82 1016.1
20180918065159 69 265 0.0 8.0 0.00 0.00 0.00 82 1016.0
20180918063700 69 274 0.0 7.0 0.00 0.00 0.00 82 1016.1
20180918062200 69 112 1.0 7.0 0.00 0.00 0.00 82 1016.2
20180918060635 69 273 0.0 7.0 0.00 0.00 0.00 83 1016.0
20180918055117 69 262 0.0 3.0 0.00 0.00 0.00 83 1016.1
20180918053607 69 262 1.0 6.0 0.00 0.00 0.00 82 1016.0